Location: Cheyres
(46.8153°N, 6.7877°E)
Time: 13:56:01
(UTC+00:00)

Cosmos 1821 Rocket - Pass Details

Date: 11 May 2021
Orbit: 945 x 1004 km, 82.9° (Epoch: 19 June)

Event Time Altitude Azimuth Distance (km) Brightness Sun altitude
Rises 23:31:06 0° 349° (N) 3,743 8.4 -25.0°
Reaches altitude 10° 23:33:39 10° 347° (NNW) 2,790 7.4 -25.0°
Maximum altitude 23:40:02 71° 266° (W) 1,060 4.1 -25.0°
Enters shadow 23:41:25 54° 205° (SSW) 1,198 4.1 -25.0°
